H1 CPF 2 NER 2025 7 24 9 205 01 glonass131 H2 1301901 9131 39155 2025 7 24 0 0 0 2025 7 27 23 45 0 900 1 1 0 0 0 1 H9 10 0 60880 0.00000 0 -10806865.004 -4882726.394 22633510.818 10 0 60880 900.00000 0 -8606973.795 -6637909.827 23120447.664 10 0 60880 1800.00000 0 -6520202.062 -8574908.230 23160487.205 10 0 60880 2700.00000 0 -4598662.962 -10646177.139 22752603.634 10 0 60880 3600.00000 0 -2885219.021 -12795844.649 21904396.921 10 0 60880 4500.00000 0 -1411886.980 -14961862.152 20631970.303 10 0 60880 5400.00000 0 -198701.439 -17078432.924 18959646.973 10 0 60880 6300.00000 0 746914.864 -19078620.177 16919529.066 10 0 60880 7200.00000 0 1430246.768 -20897027.878 14550904.863 10 0 60880 8100.00000 0 1868842.930 -22472443.559 11899513.109 10 0 60880 9000.00000 0 2091549.563 -23750332.709 9016676.335 10 0 60880 9900.00000 0 2137060.754 -24685079.374 5958318.162 10 0 60880 10800.00000 0 2052045.333 -25241877.171 2783882.423 10 0 60880 11700.00000 0 1888928.843 -25398188.811 -444825.342 10 0 60880 12600.00000 0 1703424.704 -25144709.941 -3664851.106 10 0 60880 13500.00000 0 1551920.249 -24485793.874 -6813335.551 10 0 60880 14400.00000 0 1488830.308 -23439316.850 -9828761.283 10 0 60880 15300.00000 0 1564033.159 -22035987.607 -12652177.478 10 0 60880 16200.00000 0 1820500.540 -20318129.316 -15228375.654 10 0 60880 17100.00000 0 2292225.275 -18337984.987 -17506991.154 10 0 60880 18000.00000 0 3002537.253 -16155618.376 -19443506.607 10 0 60880 18900.00000 0 3962881.521 -13836500.012 -21000135.971 10 0 60880 19800.00000 0 5172112.002 -11448881.565 -22146570.648 10 0 60880 20700.00000 0 6616331.763 -9061070.657 -22860572.461 10 0 60880 21600.00000 0 8269286.881 -6738722.131 -23128401.910 10 0 60880 22500.00000 0 10093296.971 -4542260.430 -22945073.965 10 0 60880 23400.00000 0 12040682.261 -2524541.541 -22314437.448 10 0 60880 24300.00000 0 14055625.984 -728851.933 -21249077.964 10 0 60880 25200.00000 0 16076392.491 812673.089 -19770047.964 10 0 60880 26100.00000 0 18037806.687 2080147.629 -17906431.054 10 0 60880 27000.00000 0 19873889.851 3066506.979 -15694750.906 10 0 60880 27900.00000 0 21520540.824 3777532.462 -13178237.984 10 0 60880 28800.00000 0 22918150.247 4231331.989 -10405969.959 10 0 60880 29700.00000 0 24014038.986 4457301.820 -7431903.822 10 0 60880 30600.00000 0 24764619.831 4494616.519 -4313819.438 10 0 60880 31500.00000 0 25137193.628 4390313.406 -1112195.716 10 0 60880 32400.00000 0 25111306.692 4197054.208 2110958.626 10 0 60880 33300.00000 0 24679614.830 3970659.381 5293297.298 10 0 60880 34200.00000 0 23848219.917 3767519.352 8373329.180 10 0 60880 35100.00000 0 22636466.715 3641991.341 11291589.602 10 0 60880 36000.00000 0 21076209.680 3643890.367 13991768.963 10 0 60880 36900.00000 0 19210580.995 3816178.662 16421778.561 10 0 60880 37800.00000 0 17092311.021 4192949.158 18534734.996 10 0 60880 38700.00000 0 14781670.226 4797786.461 20289846.136 10 0 60880 39600.00000 0 12344116.614 5642573.193 21653183.383 10 0 60880 40500.00000 0 9847744.251 6726791.543 22598326.972 10 0 60880 41400.00000 0 7360636.328 8037349.871 23106873.080 10 0 60880 42300.00000 0 4948229.991 9548943.072 23168793.570 10 0 60880 43200.00000 0 2670799.793 11224933.893 22782641.469 10 0 60880 44100.00000 0 581162.108 13018721.319 21955597.520 10 0 60880 45000.00000 0 -1277305.639 14875542.152 20703355.555 10 0 60880 45900.00000 0 -2872249.401 16734633.935 19049846.989 10 0 60880 46800.00000 0 -4183460.675 18531671.986 17026807.372 10 0 60880 47700.00000 0 -5203488.913 20201381.172 14673190.800 10 0 60880 48600.00000 0 -5937717.406 21680214.832 12034440.936 10 0 60880 49500.00000 0 -6403897.935 22908989.290 9161630.355 10 0 60880 50400.00000 0 -6631162.143 23835363.010 6110483.078 10 0 60880 51300.00000 0 -6658549.904 24416054.854 2940297.980 10 0 60880 52200.00000 0 -6533115.910 24618705.878 -287206.490 10 0 60880 53100.00000 0 -6307694.327 24423303.472 -3509103.454 10 0 60880 54000.00000 0 -6038416.758 23823104.794 -6662499.956 10 0 60880 54900.00000 0 -5782090.132 22825017.674 -9685784.606 10 0 60880 55800.00000 0 -5593547.842 21449420.457 -12519853.929 10 0 60880 56700.00000 0 -5523089.129 19729426.637 -15109291.112 10 0 60880 57600.00000 0 -5614118.215 17709624.346 -17403471.659 10 0 60880 58500.00000 0 -5901086.129 15444343.737 -19357572.143 10 0 60880 59400.00000 0 -6407824.948 12995525.906 -20933460.511 10 0 60880 60300.00000 0 -7146346.959 10430284.184 -22100449.305 10 0 60880 61200.00000 0 -8116160.789 7818261.852 -22835896.380 10 0 60880 62100.00000 0 -9304133.898 5228898.683 -23125641.387 10 0 60880 63000.00000 0 -10684907.007 2728722.115 -22964270.045 10 0 60880 63900.00000 0 -12221842.125 378777.257 -22355202.125 10 0 60880 64800.00000 0 -13868462.941 -1767696.832 -21310602.869 10 0 60880 65700.00000 0 -15570325.439 -3667248.280 -19851121.297 10 0 60880 66600.00000 0 -17267238.512 -5287769.883 -18005462.356 10 0 60880 67500.00000 0 -18895739.922 -6609570.373 -15809803.084 10 0 60880 68400.00000 0 -20391722.649 -7625917.876 -13307065.923 10 0 60880 69300.00000 0 -21693100.902 -8343036.406 -10546064.896 10 0 60880 70200.00000 0 -22742404.031 -8779559.354 -7580542.563 10 0 60880 71100.00000 0 -23489190.227 -8965466.512 -4468117.450 10 0 60880 72000.00000 0 -23892179.994 -8940552.511 -1269163.024 10 0 60880 72900.00000 0 -23921021.611 -8752493.651 1954359.812 10 0 60880 73800.00000 0 -23557616.463 -8454596.214 5140094.299 10 0 60880 74700.00000 0 -22796950.636 -8103321.979 8226481.018 10 0 60880 75600.00000 0 -21647399.700 -7755695.136 11153930.658 10 0 60880 76500.00000 0 -20130495.230 -7466699.085 13865955.142 10 0 60880 77400.00000 0 -18280163.533 -7286771.392 16310236.912 10 0 60880 78300.00000 0 -16141468.360 -7259500.691 18439617.699 10 0 60880 79200.00000 0 -13768909.183 -7419620.684 20212989.645 10 0 60880 80100.00000 0 -11224344.377 -7791384.157 21596073.450 10 0 60880 81000.00000 0 -8574623.453 -8387384.331 22562070.199 10 0 60880 81900.00000 0 -5889024.043 -9207872.883 23092175.486 10 0 60880 82800.00000 0 -3236597.178 -10240603.886 23175946.610 10 0 60880 83700.00000 0 -683528.145 -11461211.792 22811515.772 10 0 60880 84600.00000 0 1709380.117 -12834110.018 22005644.517 10 0 60880 85500.00000 0 3888998.601 -14313875.407 20773617.022 10 0 60881 0.00000 0 5811844.762 -15847063.755 19138972.571 10 0 60881 900.00000 0 7445655.440 -17374384.391 17133079.055 10 0 60881 1800.00000 0 8770491.867 -18833143.449 14794555.463 10 0 60881 2700.00000 0 9779333.120 -20159858.246 12168549.017 10 0 60881 3600.00000 0 10478129.192 -21292932.183 9305880.668 10 0 60881 4500.00000 0 10885310.925 -22175278.704 6262072.858 10 0 60881 5400.00000 0 11030775.691 -22756782.841 3096277.227 10 0 60881 6300.00000 0 10954390.404 -22996494.787 -129877.397 10 0 60881 7200.00000 0 10704074.440 -22864460.374 -3353494.020 10 0 60881 8100.00000 0 10333543.703 -22343108.165 -6511648.945 10 0 60881 9000.00000 0 9899812.289 -21428131.464 -9542639.778 10 0 60881 9900.00000 0 9460559.320 -20128825.097 -12387213.451 10 0 60881 10800.00000 0 9071474.890 -18467860.421 -14989747.863 10 0 60881 11700.00000 0 8783700.313 -16480506.391 -17299361.663 10 0 60881 12600.00000 0 8641473.933 -14213328.833 -19270928.182 10 0 60881 13500.00000 0 8680084.793 -11722422.694 -20865971.935 10 0 60881 14400.00000 0 8924222.878 -9071252.409 -22053428.835 10 0 60881 15300.00000 0 9386797.141 -6328192.309 -22810254.602 10 0 60881 16200.00000 0 10068271.944 -3563871.716 -23121869.397 10 0 60881 17100.00000 0 10956549.789 -848437.223 -22982430.585 10 0 60881 18000.00000 0 12027404.483 1751152.209 -22394929.299 10 0 60881 18900.00000 0 13245445.070 4173683.945 -21371110.378 10 0 60881 19800.00000 0 14565568.211 6365997.600 -19931218.944 10 0 60881 20700.00000 0 15934835.988 8284943.111 -18103580.390 10 0 60881 21600.00000 0 17294698.355 9898911.213 -15924023.831 10 0 60881 22500.00000 0 18583465.303 11188875.203 -13435161.985 10 0 60881 23400.00000 0 19738923.781 12148903.731 -10685543.126 10 0 60881 24300.00000 0 20700988.940 12786126.867 -7728692.914 10 0 60881 25200.00000 0 21414278.490 13120160.584 -4622065.717 10 0 60881 26100.00000 0 21830502.745 13182017.257 -1425926.481 10 0 60881 27000.00000 0 21910571.294 13012550.922 1797814.950 10 0 60881 27900.00000 0 21626329.434 12660504.883 4986794.673 10 0 60881 28800.00000 0 20961853.276 12180245.182 8079388.249 10 0 60881 29700.00000 0 19914250.897 11629275.796 11015884.878 10 0 60881 30600.00000 0 18493937.314 11065639.757 13739620.946 10 0 60881 31500.00000 0 16724372.616 10545314.476 16198052.747 10 0 60881 32400.00000 0 14641274.341 10119709.209 18343749.546 10 0 60881 33300.00000 0 12291336.312 9833368.057 20135289.867 10 0 60881 34200.00000 0 9730505.922 9721973.203 21538045.505 10 0 60881 35100.00000 0 7021889.419 9810730.768 22524839.847 10 0 60881 36000.00000 0 4233369.540 10113206.156 23076469.005 10 0 60881 36900.00000 0 1435031.433 10630657.633 23182076.423 10 0 60881 37800.00000 0 -1303499.441 11351896.863 22839373.767 10 0 60881 38700.00000 0 -3915699.907 12253683.879 22054703.227 10 0 60881 39600.00000 0 -6340664.912 13301642.265 20842938.717 10 0 60881 40500.00000 0 -8525393.963 14451659.066 19227226.001 10 0 60881 41400.00000 0 -10426754.080 15651713.731 17238564.426 10 0 60881 42300.00000 0 -12013037.697 16844062.260 14915235.785 10 0 60881 43200.00000 0 -13265049.912 17967687.176 12302088.735 10 0 60881 44100.00000 0 -14176678.421 18960912.002 9449690.275 10 0 60881 45000.00000 0 -14754920.651 19764070.809 6413358.778 10 0 60881 45900.00000 0 -15019365.252 20322119.945 3252096.065 10 0 60881 46800.00000 0 -15001148.308 20587080.349 27438.686 10 0 60881 47700.00000 0 -14741427.226 20520205.007 -3197748.963 10 0 60881 48600.00000 0 -14289436.442 20093777.055 -6360515.170 10 0 60881 49500.00000 0 -13700207.609 19292459.318 -9399069.268 10 0 60881 50400.00000 0 -13032052.007 18114135.067 -12254011.252 10 0 60881 51300.00000 0 -12343913.739 16570201.651 -14869516.289 10 0 60881 52200.00000 0 -11692708.221 14685302.436 -17194448.538 10 0 60881 53100.00000 0 -11130761.339 12496506.915 -19183380.249 10 0 60881 54000.00000 0 -10703460.204 10051973.003 -20797494.395 10 0 60881 54900.00000 0 -10447217.118 7409147.953 -22005351.883 10 0 60881 55800.00000 0 -10387834.402 4632584.339 -22783507.603 10 0 60881 56700.00000 0 -10539340.007 1791463.919 -23116963.218 10 0 60881 57600.00000 0 -10903343.091 -1043065.591 -22999448.367 10 0 60881 58500.00000 0 -11468935.953 -3800628.215 -22433525.787 10 0 60881 59400.00000 0 -12213145.054 -6414316.765 -21430519.749 10 0 60881 60300.00000 0 -13101910.170 -8823236.527 -20010270.888 10 0 60881 61200.00000 0 -14091548.287 -10974790.028 -18200724.045 10 0 60881 62100.00000 0 -15130638.399 -12826609.047 -16037359.039 10 0 60881 63000.00000 0 -16162245.882 -14348055.468 -13562477.168 10 0 60881 63900.00000 0 -17126391.259 -15521231.194 -10824359.010 10 0 60881 64800.00000 0 -17962658.436 -16341458.302 -7876311.175 10 0 60881 65700.00000 0 -18612832.262 -16817212.943 -4775621.591 10 0 60881 66600.00000 0 -19023454.717 -16969519.308 -1582444.290 10 0 60881 67500.00000 0 -19148193.020 -16830832.279 1641364.434 10 0 60881 68400.00000 0 -18949921.410 -16443458.284 4833436.102 10 0 60881 69300.00000 0 -18402430.653 -15857582.551 7932083.904 10 0 60881 70200.00000 0 -17491695.108 -15128986.631 10877478.238 10 0 60881 71100.00000 0 -16216645.585 -14316552.206 13612782.660 10 0 60881 72000.00000 0 -14589416.601 -13479655.335 16085229.937 10 0 60881 72900.00000 0 -12635058.028 -12675559.231 18247119.378 10 0 60881 73800.00000 0 -10390722.760 -11956913.189 20056718.167 10 0 60881 74700.00000 0 -7904363.101 -11369460.666 21479051.198 10 0 60881 75600.00000 0 -5232988.150 -10950050.780 22486565.829 10 0 60881 76500.00000 0 -2440552.043 -10725035.136 23059660.009 10 0 60881 77400.00000 0 404442.283 -10709116.374 23187064.282 10 0 60881 78300.00000 0 3231527.637 -10904696.652 22866070.395 10 0 60881 79200.00000 0 5970941.371 -11301754.219 22102601.478 10 0 60881 80100.00000 0 8556270.502 -11878254.860 20911121.178 10 0 60881 81000.00000 0 10926965.574 -12601083.253 19314381.621 10 0 60881 81900.00000 0 13030620.224 -13427457.836 17343012.747 10 0 60881 82800.00000 0 14824922.153 -14306772.486 15034958.399 10 0 60881 83700.00000 0 16279193.868 -15182790.083 12434767.458 10 0 60881 84600.00000 0 17375457.841 -15996097.549 9592751.380 10 0 60881 85500.00000 0 18108979.891 -16686719.980 6564022.501 10 0 60882 0.00000 0 18488266.198 -17196783.630 3407430.771 10 0 60882 900.00000 0 18534512.411 -17473114.595 184417.224 10 0 60882 1800.00000 0 18280526.206 -17469660.780 -3042188.983 10 0 60882 2700.00000 0 17769168.555 -17149632.989 -6209411.222 10 0 60882 3600.00000 0 17051378.857 -16487270.672 -9255373.716 10 0 60882 4500.00000 0 16183868.423 -15469154.614 -12120532.703 10 0 60882 5400.00000 0 15226581.292 -14095007.886 -14748863.725 10 0 60882 6300.00000 0 14240031.887 -12377948.521 -17088979.439 10 0 60882 7200.00000 0 13282634.579 -10344181.289 -19095153.809 10 0 60882 8100.00000 0 12408140.586 -8032140.392 -20728230.821 10 0 60882 9000.00000 0 11663292.805 -5491118.780 -21956398.607 10 0 60882 9900.00000 0 11085799.382 -2779442.107 -22755813.085 10 0 60882 10800.00000 0 10702712.600 37735.150 -23111058.853 10 0 60882 11700.00000 0 10529281.668 2890917.891 -23015438.795 10 0 60882 12600.00000 0 10568327.125 5708937.525 -22471087.765 10 0 60882 13500.00000 0 10810161.826 8421685.592 -21488909.513 10 0 60882 14400.00000 0 11233059.769 10962799.204 -20088339.789 10 0 60882 15300.00000 0 11804250.636 13272186.364 -18296942.061 10 0 60882 16200.00000 0 12481395.548 15298286.659 -16149845.600 10 0 60882 17100.00000 0 13214479.451 16999974.686 -13689038.641 10 0 60882 18000.00000 0 13948038.252 18348029.087 -10962532.013 10 0 60882 18900.00000 0 14623625.303 19326108.819 -8023410.858 10 0 60882 19800.00000 0 15182412.331 19931199.126 -4928793.916 10 0 60882 20700.00000 0 15567814.962 20173512.007 -1738721.279 10 0 60882 21600.00000 0 15728032.628 20075848.620 1485007.508 10 0 60882 22500.00000 0 15618396.858 19672453.200 4680022.681 10 0 60882 23400.00000 0 15203430.440 19007408.769 7784578.322 10 0 60882 24300.00000 0 14458532.397 18132643.367 10738729.191 10 0 60882 25200.00000 0 13371219.402 17105630.971 13485468.990 10 0 60882 26100.00000 0 11941872.687 15986883.251 15971809.717 10 0 60882 27000.00000 0 10183959.716 14837336.233 18149783.205 10 0 60882 27900.00000 0 8123721.240 13715739.749 19977347.502 10 0 60882 28800.00000 0 5799335.848 12676157.038 21419182.493 10 0 60882 29700.00000 0 3259595.148 11765677.090 22447361.065 10 0 60882 30600.00000 0 562142.212 11022433.632 23041884.200 10 0 60882 31500.00000 0 -2228656.452 10474012.249 23191070.337 10 0 60882 32400.00000 0 -5044120.374 10136311.546 22891791.657 10 0 60882 33300.00000 0 -7813849.423 10012906.102 22149552.114 10 0 60882 34200.00000 0 -10468398.358 10094938.739 20978404.480 10 0 60882 35100.00000 0 -12941923.193 10361548.240 19400706.143 10 0 60882 36000.00000 0 -15174691.318 10780816.731 17446716.073 10 0 60882 36900.00000 0 -17115351.853 11311199.347 15154038.198 10 0 60882 37800.00000 0 -18722871.746 11903378.494 12566919.333 10 0 60882 38700.00000 0 -19968055.987 12502466.643 9735412.868 10 0 60882 39600.00000 0 -20834586.838 13050466.188 6714422.440 10 0 60882 40500.00000 0 -21319536.646 13488883.010 3562642.821 10 0 60882 41400.00000 0 -21433330.655 13761382.837 341417.922 10 0 60882 42300.00000 0 -21199159.515 13816376.544 -2886461.625 10 0 60882 43200.00000 0 -20651864.883 13609422.669 -6057996.973 10 0 60882 44100.00000 0 -19836344.442 13105342.435 -9111229.903 10 0 60882 45000.00000 0 -18805543.829 12279954.445 -11986475.481 10 0 60882 45900.00000 0 -17618121.268 11121352.342 -14627512.099 10 0 60882 46800.00000 0 -16335885.234 9630668.362 -16982703.213 10 0 60882 47700.00000 0 -15021115.602 7822288.130 -19006026.573 10 0 60882 48600.00000 0 -13733883.779 5723505.893 -20657988.950 10 0 60882 49500.00000 0 -12529487.231 3373633.831 -21906407.148 10 0 60882 50400.00000 0 -11456108.539 822602.817 -22727039.198 10 0 60882 51300.00000 0 -10552798.931 -1870886.084 -23104053.339 10 0 60882 52200.00000 0 -9847871.676 -4641580.888 -23030326.034 10 0 60882 53100.00000 0 -9357772.597 -7420174.579 -22507564.190 10 0 60882 54000.00000 0 -9086473.920 -10135972.109 -21546250.597 10 0 60882 54900.00000 0 -9025414.957 -12719616.235 -20165415.317 10 0 60882 55800.00000 0 -9153989.532 -15105758.042 -18392239.296 10 0 60882 56700.00000 0 -9440556.765 -17235561.019 -16261499.820 10 0 60882 57600.00000 0 -9843929.731 -19058935.251 -13814870.378 10 0 60882 58500.00000 0 -10315276.628 -20536410.235 -11100090.193 10 0 60882 59400.00000 0 -10800352.093 -21640570.514 -8170020.963 10 0 60882 60300.00000 0 -11241963.039 -22356997.048 -5081610.187 10 0 60882 61200.00000 0 -11582564.135 -22684678.112 -1894781.925 10 0 60882 62100.00000 0 -11766873.368 -22635875.682 1328723.169 10 0 60882 63000.00000 0 -11744397.939 -22235455.825 4526536.236 10 0 60882 63900.00000 0 -11471765.096 -21519713.571 7636854.503 10 0 60882 64800.00000 0 -10914761.148 -20534743.222 10599619.408 10 0 60882 65700.00000 0 -10049994.315 -19334423.309 13357657.162 10 0 60882 66600.00000 0 -8866112.846 -17978100.641 15857761.353 10 0 60882 67500.00000 0 -7364528.131 -16528069.667 18051698.643 10 0 60882 68400.00000 0 -5559612.731 -15046951.139 19897120.129 10 0 60882 69300.00000 0 -3478364.501 -13595077.784 21358362.670 10 0 60882 70200.00000 0 -1159549.412 -12227994.045 22407126.431 10 0 60882 71100.00000 0 1347643.390 -10994172.173 23023016.886 10 0 60882 72000.00000 0 3985381.149 -9933038.218 23193941.526 10 0 60882 72900.00000 0 6689331.005 -9073389.027 22916353.810 10 0 60882 73800.00000 0 9391081.910 -8432265.756 22195339.060 10 0 60882 74700.00000 0 12020747.676 -8014331.146 21044539.417 10 0 60882 75600.00000 0 14509645.988 -7811777.539 19485917.486 10 0 60882 76500.00000 0 16792944.320 -7804771.044 17549360.925 10 0 60882 77400.00000 0 18812163.996 -7962415.224 15272133.078 10 0 60882 78300.00000 0 20517438.545 -8244195.979 12698177.682 10 0 60882 79200.00000 0 21869431.562 -8601848.808 9877288.654 10 0 60882 80100.00000 0 22840832.548 -8981571.291 6864159.130 10 0 60882 81000.00000 0 23417366.159 -9326488.237 3717326.773 10 0 60882 81900.00000 0 23598270.259 -9579265.221 498035.212 10 0 60882 82800.00000 0 23396220.464 -9684758.910 -2730966.062 10 0 60882 83700.00000 0 22836702.492 -9592590.038 -5906659.090 10 0 60882 84600.00000 0 21956857.476 -9259527.352 -8967006.410 10 0 60882 85500.00000 0 20803848.455 -8651578.388 -11852185.126 10 0 60883 0.00000 0 19432817.453 -7745695.303 -14505779.371 10 0 60883 900.00000 0 17904519.737 -6531019.793 -16875906.853 10 0 60883 1800.00000 0 16282738.738 -5009612.974 -18916251.628 10 0 60883 2700.00000 0 14631590.404 -3196635.655 -20586985.804 10 0 60883 3600.00000 0 13012834.615 -1119971.140 -21855557.119 10 0 60883 4500.00000 0 11483308.276 1180694.522 -22697327.684 10 0 60883 5400.00000 0 10092589.722 3655295.952 -23096050.976 10 0 60883 6300.00000 0 8880993.425 6245255.060 -23044178.236 10 0 60883 7200.00000 0 7877979.216 8885711.482 -22542989.199 10 0 60883 8100.00000 0 7101041.816 11508022.274 -21602546.025 10 0 60883 9000.00000 0 6555125.449 14042425.240 -20241472.952 10 0 60883 9900.00000 0 6232585.587 16420753.854 -18486567.814 10 0 60883 10800.00000 0 6113696.343 18579090.194 -16372254.870 10 0 60883 11700.00000 0 6167678.964 20460245.605 -13939891.369 10 0 60883 12600.00000 0 6354204.944 22015966.597 -11236943.006 10 0 60883 13500.00000 0 6625307.659 23208775.713 -8316045.706 10 0 60883 14400.00000 0 6927619.691 24013372.811 -5233973.029 10 0 60883 15300.00000 0 7204839.983 24417540.926 -2050530.002 10 0 60883 16200.00000 0 7400325.999 24422521.767 1172604.836 10 0 60883 17100.00000 0 7459701.595 24042847.953 4373066.876 10 0 60883 18000.00000 0 7333371.270 23305641.515 7488999.868 10 0 60883 18900.00000 0 6978836.005 22249409.937 10460235.233 10 0 60883 19800.00000 0 6362714.575 20922391.332 13229434.843 10 0 60883 20700.00000 0 5462386.702 19380518.351 15743176.834 10 0 60883 21600.00000 0 4267190.124 17685085.488 17952965.399 10 0 60883 22500.00000 0 2779121.974 15900216.023 19816147.104 10 0 60883 23400.00000 0 1013014.958 14090232.540 21296717.898 10 0 60883 24300.00000 0 -1003819.962 12317038.518 22366006.996 10 0 60883 25200.00000 0 -3232471.295 10637617.849 23003225.745 10 0 60883 26100.00000 0 -5623791.074 9101754.302 23195871.650 10 0 60883 27000.00000 0 -8120191.606 7750064.208 22939979.938 10 0 60883 27900.00000 0 -10657803.646 6612423.158 22240217.271 10 0 60883 28800.00000 0 -13168909.739 5706851.866 21109814.590 10 0 60883 29700.00000 0 -15584554.760 5038908.022 19570338.595 10 0 60883 30600.00000 0 -17837227.734 4601610.504 17651303.975 10 0 60883 31500.00000 0 -19863505.055 4375900.680 15389631.363 10 0 60883 32400.00000 0 -21606545.811 4331623.286 12828958.873 10 0 60883 33300.00000 0 -23018334.909 4428987.515 10018818.116 10 0 60883 34200.00000 0 -24061579.074 4620448.418 7013688.679 10 0 60883 35100.00000 0 -24711174.489 4852930.296 3871947.991 10 0 60883 36000.00000 0 -24955182.160 5070298.455 654736.269 10 0 60883 36900.00000 0 -24795267.467 5215974.151 -2575241.224 10 0 60883 37800.00000 0 -24246583.103 5235580.508 -5754950.405 10 0 60883 38700.00000 0 -23337098.430 5079504.971 -8822277.453 10 0 60883 39600.00000 0 -22106402.366 4705266.813 -11717264.237 10 0 60883 40500.00000 0 -20604029.955 4079586.119 -14383303.645 10 0 60883 41400.00000 0 -18887383.709 3180063.354 -16768268.997 10 0 60883 42300.00000 0 -17019338.655 1996395.470 -18825553.180 10 0 60883 43200.00000 0 -15065633.800 531074.676 -20514995.276 10 0 60883 44100.00000 0 -13092161.923 -1200461.384 -21803675.178 10 0 60883 45000.00000 0 -11162273.784 -3170235.329 -22666559.806 10 0 60883 45900.00000 0 -9334211.692 -5338674.743 -23086988.140 10 0 60883 46800.00000 0 -7658781.287 -7656055.710 -23056985.987 10 0 60883 47700.00000 0 -6177359.519 -10064383.610 -22577405.274 10 0 60883 48600.00000 0 -4920321.688 -12499631.132 -21657886.490 10 0 60883 49500.00000 0 -3905951.949 -14894238.520 -20316646.682 10 0 60883 50400.00000 0 -3139880.576 -17179770.379 -18580098.926 10 0 60883 51300.00000 0 -2615068.582 -19289617.313 -16482312.593 10 0 60883 52200.00000 0 -2312336.905 -21161629.395 -14064326.682 10 0 60883 53100.00000 0 -2201414.427 -22740571.926 -11373331.270 10 0 60883 54000.00000 0 -2242457.435 -23980302.092 -8461734.391 10 0 60883 54900.00000 0 -2387973.666 -24845577.327 -5386133.567 10 0 60883 55800.00000 0 -2585067.705 -25313422.049 -2206212.742 10 0 60883 56700.00000 0 -2777911.623 -25373998.173 1016413.664 10 0 60883 57600.00000 0 -2910336.107 -25030945.604 4219387.256 10 0 60883 58500.00000 0 -2928432.973 -24301180.900 7340800.247 10 0 60883 59400.00000 0 -2783060.181 -23214164.522 10320375.985 10 0 60883 60300.00000 0 -2432145.059 -21810668.719 13100613.937 10 0 60883 61200.00000 0 -1842690.231 -20141098.148 15627878.697 10 0 60883 62100.00000 0 -992399.235 -18263433.211 17853413.850 10 0 60883 63000.00000 0 129145.457 -16240880.910 19734263.178 10 0 60883 63900.00000 0 1519801.045 -14139329.532 21234083.314 10 0 60883 64800.00000 0 3164708.582 -12024711.015 22323833.913 10 0 60883 65700.00000 0 5036670.505 -9960378.349 22982333.348 10 0 60883 66600.00000 0 7097047.850 -8004604.713 23196670.030 10 0 60883 67500.00000 0 9297142.537 -6208306.209 22962461.581 10 0 60883 68400.00000 0 11580010.474 -4613081.227 22283956.361 10 0 60883 69300.00000 0 13882633.410 -3249647.055 21173974.218 10 0 60883 70200.00000 0 16138362.557 -2136738.568 19653685.801 10 0 60883 71100.00000 0 18279535.119 -1280515.402 17752232.435 10 0 60883 72000.00000 0 20240156.931 -674503.442 15506191.377 10 0 60883 72900.00000 0 21958540.551 -300074.632 12958894.169 10 0 60883 73800.00000 0 23379788.935 -127446.616 10159608.854 10 0 60883 74700.00000 0 24458019.954 -117161.853 7162599.873 10 0 60883 75600.00000 0 25158236.957 -221985.070 4026082.472 10 0 60883 76500.00000 0 25457764.515 -389139.577 811091.171 10 0 60883 77400.00000 0 25347186.350 -562787.704 -2419715.552 10 0 60883 78300.00000 0 24830743.253 -686649.303 -5603290.264 10 0 60883 79200.00000 0 23926171.847 -706645.480 -8677445.661 10 0 60883 80100.00000 0 22663989.172 -573452.942 -11582091.283 10 0 60883 81000.00000 0 21086252.207 -244857.637 -14260431.370 10 0 60883 81900.00000 0 19244844.468 312195.226 -16660098.032 10 0 60883 82800.00000 0 17199362.517 1119944.665 -18734195.261 10 0 60883 83700.00000 0 15014692.735 2188623.663 -20442231.462 10 0 60883 84600.00000 0 12758382.058 3515787.483 -21750920.825 10 0 60883 85500.00000 0 10497915.160 5086190.216 -22634837.015 99